Wind_Speed
95 94 92 90 89 88 87 86 85 83 81 79 77 75 73 72 71 70 70 70 68 67 66 65 64 63 63 61 61 61 60 60 58 57 54 50 50 51 49 49 47 45 46 46 44 41 39 38 36 36 35 35 33 30 28 28 27 26 25 24 22 22 25 26 27 28 26 26 21 19 23 25 22 20 19 19 18 17 16 15 14 13 13 12 11 9 8 7
96 95 94 93 91 90 89 87 86 85 83 82 79 77 75 73 72 71 71 70 69 68 67 66 65 64 64 63 62 62 61 60 61 60 55 52 53 53 50 49 49 47 48 48 45 43 42 41 39 38 38 37 35 33 30 29 29 28 26 25 22 24 28 27 28 27 24 24 22 20 24 25 22 21 21 21 20 18 17 16 15 14 13 13 12 11 10 9
97 97 96 95 93 91 90 89 88 86 85 84 82 79 77 75 74 72 71 70 69 69 68 67 66 65 64 64 63 63 62 62 63 60 54 53 54 53 51 50 50 50 50 50 48 46 45 43 42 40 39 39 37 35 33 32 29 28 28 24 22 27 30 28 28 27 23 26 25 20 23 25 22 22 23 23 21 20 19 17 16 14 13 13 13 13 12 10
98 98 97 96 95 93 92 90 89 88 86 85 84 82 79 77 75 73 72 71 70 69 68 68 67 66 65 65 65 64 63 64 64 59 53 53 54 53 52 51 52 53 53 52 50 49 47 46 44 42 41 40 39 38 36 34 30 30 29 24 25 29 30 30 28 25 24 28 26 22 24 26 22 22 25 24 22 22 20 17 15 15 14 14 14 14 13 12
99 99 98 97 96 95 93 92 90 89 88 86 85 83 81 79 77 75 73 72 71 70 69 69 68 67 66 66 65 65 64 66 65 59 56 53 53 54 53 53 54 55 55 53 52 51 49 47 46 44 43 41 40 40 37 35 33 33 30 26 29 30 31 31 25 23 27 29 27 25 26 25 22 23 26 25 24 24 20 17 17 17 16 16 15 15 15 14
100 100 99 98 97 97 95 93 91 90 89 88 86 85 83 81 79 77 75 73 72 71 70 69 69 68 68 67 66 66 66 68 65 60 58 56 54 55 55 54 55 57 56 55 54 53 51 49 48 46 45 43 42 41 37 36 37 36 33 30 30 31 33 32 24 24 29 30 29 27 26 25 25 26 27 25 26 26 22 20 20 19 17 16 17 16 16 16
100 100 100 99 98 97 96 95 93 91 90 89 87 86 84 82 80 78 76 75 73 72 71 70 70 69 69 68 67 67 68 68 65 59 58 57 56 56 56 56 57 59 58 56 55 54 53 52 50 48 46 45 43 42 38 37 39 38 35 33 32 34 36 32 26 27 30 30 29 27 26 27 27 27 26 24 26 27 24 23 22 20 19 18 18 18 17 17
99 100 101 100 99 98 97 96 95 93 91 90 88 87 86 84 81 79 77 76 75 73 72 71 71 70 70 70 69 69 69 68 64 60 57 56 56 55 54 56 59 60 59 57 56 55 55 54 52 50 48 46 44 42 40 39 41 41 37 35 36 38 38 32 28 28 30 31 29 27 27 28 28 27 25 24 26 27 26 25 24 22 22 20 19 18 18 18
93 98 100 101 100 100 98 97 96 95 92 91 89 88 87 85 83 80 78 77 76 75 73 72 72 71 70 70 71 71 70 66 63 61 59 55 56 56 53 54 58 60 59 57 56 56 56 55 53 52 50 48 45 44 43 42 43 43 39 37 40 41 39 34 31 31 32 32 30 28 28 28 29 28 25 24 26 27 26 25 25 24 23 22 20 19 19 19
86 91 97 100 101 101 100 98 97 96 94 92 90 89 87 86 84 82 80 78 77 76 74 73 72 72 71 72 73 73 71 66 62 62 61 56 54 57 55 53 56 59 58 57 57 57 56 54 53 52 51 50 49 46 46 46 44 44 42 40 41 41 40 37 33 33 33 33 31 30 29 28 29 26 23 25 27 28 26 24 24 24 23 23 22 20 20 20
82 84 89 95 99 101 101 100 98 97 96 94 91 90 88 87 85 83 81 79 78 76 75 74 73 73 72 74 74 73 71 67 63 62 62 59 55 54 55 53 54 57 58 58 57 57 56 55 55 53 52 52 52 49 48 48 45 45 45 41 40 41 42 38 33 35 36 34 33 32 30 30 28 23 21 27 29 29 29 26 25 24 23 24 23 21 21 20
82 82 83 87 93 98 100 101 100 98 97 95 93 91 89 87 86 85 82 80 78 77 76 75 75 74 74 75 74 72 69 66 65 64 61 61 57 52 52 52 53 55 57 58 57 57 56 56 56 55 55 53 52 51 50 50 49 48 47 43 41 42 43 39 35 38 39 36 35 34 32 31 27 21 23 30 31 30 30 28 26 25 24 25 24 23 22 22
81 82 82 83 85 90 95 99 100 100 99 97 95 92 90 88 87 86 84 82 80 78 76 75 75 75 76 76 73 71 70 67 68 66 61 62 61 55 50 51 53 54 55 56 55 57 57 57 56 55 57 55 53 54 52 51 51 50 49 45 43 44 44 41 38 39 40 39 37 36 35 31 27 24 25 31 31 29 29 28 29 27 26 27 25 25 23 22
81 81 82 83 83 83 87 92 97 99 100 99 97 94 92 89 88 87 86 84 81 78 75 74 75 77 78 76 72 72 71 70 70 66 62 62 62 58 53 52 54 55 54 54 54 57 58 58 59 56 55 55 54 55 53 53 53 51 50 48 46 47 45 42 41 40 41 42 39 38 38 32 28 27 27 30 30 28 28 29 31 29 28 28 27 26 24 23
82 81 81 82 83 82 82 84 89 94 98 99 98 96 94 91 89 88 87 85 83 81 75 72 74 77 79 77 74 74 74 72 70 67 62 61 61 59 55 51 53 56 54 53 55 58 59 58 61 59 55 55 57 56 54 55 55 53 53 51 48 49 47 44 44 44 43 44 42 40 41 35 28 28 29 30 29 28 29 30 31 30 29 29 28 27 25 23
81 82 82 82 82 82 82 81 82 86 91 95 97 97 95 93 91 89 88 86 85 82 74 71 73 74 77 78 77 76 75 73 70 67 63 61 61 58 58 51 47 55 57 54 53 54 58 59 60 60 57 57 57 57 57 57 56 54 54 53 50 51 51 47 46 47 45 44 44 43 43 38 30 29 31 31 30 30 30 31 32 31 30 28 27 27 25 24
80 82 82 82 82 81 82 81 80 80 82 87 92 95 96 95 92 90 88 85 85 84 75 71 72 72 74 78 79 77 74 72 69 68 63 62 61 59 63 56 45 51 56 55 50 46 53 59 60 60 60 59 58 58 59 60 59 56 55 54 53 53 54 51 48 49 47 45 45 44 44 42 34 32 33 33 34 32 30 32 33 31 30 29 27 27 26 25
77 79 81 81 81 81 81 81 80 79 78 80 84 88 92 93 93 91 89 85 83 82 77 72 72 73 75 75 75 74 72 71 70 68 65 64 64 61 67 63 47 46 52 55 53 45 46 54 59 62 62 62 60 60 61 61 58 55 54 54 53 54 55 53 49 49 49 46 45 43 43 44 38 35 35 35 36 36 33 33 34 31 29 28 27 27 27 27
71 75 78 80 81 81 81 80 79 79 78 77 78 80 84 88 91 91 90 88 85 82 81 78 74 75 76 72 71 69 67 68 69 70 68 66 66 64 69 70 57 47 49 53 55 51 46 49 56 61 62 61 60 59 57 56 55 53 52 52 51 51 53 52 49 50 52 49 47 45 43 44 40 36 37 39 39 39 36 34 35 32 28 27 27 27 28 28
63 69 73 77 79 80 81 81 79 78 78 77 77 78 80 83 88 91 92 92 90 85 83 82 77 74 72 70 71 71 69 70 71 71 71 68 67 67 70 76 70 59 53 52 54 54 50 51 55 55 54 56 58 57 54 52 52 53 52 51 50 49 51 51 49 52 55 54 51 48 45 46 43 37 37 41 42 41 39 35 35 33 30 28 28 28 28 28
54 60 67 72 75 78 80 81 80 79 78 78 79 79 80 80 83 89 92 95 95 88 83 82 81 77 73 71 73 74 74 75 72 71 72 70 68 69 73 77 78 72 60 52 53 53 49 49 50 47 47 51 55 56 56 53 53 54 52 49 49 49 48 47 49 53 57 57 54 52 50 49 47 41 38 41 43 42 40 37 34 33 32 31 31 30 30 29
46 52 60 65 70 74 78 80 80 80 79 78 80 80 79 77 76 79 83 89 93 90 85 83 82 79 75 74 75 75 75 76 74 71 70 70 70 71 73 76 79 78 69 57 54 54 50 47 44 43 45 48 51 53 56 55 54 56 54 49 48 48 46 44 47 52 56 58 57 55 54 52 52 48 43 41 41 41 41 40 35 33 34 34 33 33 32 32
42 47 53 59 64 68 74 77 79 80 80 79 80 79 77 74 72 72 72 77 83 87 87 84 81 80 78 77 77 77 75 74 74 73 70 68 69 70 71 73 75 78 76 69 62 58 55 48 42 43 46 47 49 50 51 54 55 56 55 52 50 49 47 47 49 51 55 58 59 58 57 56 54 53 48 42 41 42 43 42 38 35 35 37 36 35 34 33
41 44 48 53 57 62 67 71 75 79 80 79 79 77 74 73 72 70 69 70 75 81 84 84 80 78 78 80 80 78 77 76 73 72 71 68 67 68 69 70 72 74 76 76 71 67 64 57 47 46 49 51 51 49 47 49 52 55 56 55 54 52 49 50 52 54 57 59 59 58 59 59 56 54 50 43 42 44 44 45 43 37 36 38 39 37 35 34
40 42 43 46 50 55 59 65 69 71 75 78 78 75 73 73 71 71 70 69 71 76 79 81 79 76 76 80 80 76 74 76 75 72 72 70 66 67 68 68 70 72 72 73 73 73 73 68 57 49 51 55 56 53 50 48 49 52 55 56 56 54 52 54 56 58 61 61 60 60 60 60 56 55 52 46 44 46 47 48 46 40 37 37 38 37 36 35
37 40 40 41 45 48 52 60 63 64 69 74 75 73 72 72 69 68 70 70 71 74 76 77 78 78 77 77 79 75 70 71 72 71 72 71 67 65 67 70 70 70 69 70 73 74 73 71 64 54 52 56 58 58 55 52 51 53 55 55 55 55 55 57 57 57 60 61 61 62 62 61 58 56 54 49 46 46 48 50 48 44 40 37 36 36 37 37
35 37 38 40 42 44 47 52 58 63 67 68 70 70 69 70 68 66 67 69 73 73 73 73 75 78 78 77 78 77 74 69 66 68 69 70 70 67 67 70 70 69 69 71 74 73 69 68 68 62 57 56 56 57 57 55 55 57 57 56 57 58 59 59 59 60 62 61 61 62 61 61 61 58 55 54 51 48 48 49 49 47 42 37 36 37 37 38
35 36 38 39 42 44 45 46 52 58 60 61 63 65 66 67 67 67 66 71 77 74 70 69 71 73 73 76 78 78 78 72 66 66 66 67 69 69 68 68 68 68 68 71 73 70 66 66 67 66 64 62 57 54 56 56 57 59 60 60 61 62 64 64 65 67 67 66 66 63 60 62 62 59 57 58 57 53 50 50 50 49 45 40 39 40 42 43
36 38 38 39 41 43 45 47 49 51 52 55 57 59 62 63 64 66 69 74 78 74 70 67 67 71 73 75 77 77 77 74 70 68 65 67 68 68 69 68 67 68 68 70 70 68 67 67 66 67 67 66 60 55 56 57 58 60 59 60 62 63 65 67 68 68 68 69 69 64 61 64 64 61 59 60 59 56 54 52 52 52 50 45 42 43 45 46
37 38 39 40 40 42 46 47 48 49 49 51 53 56 58 60 63 68 73 78 77 73 73 71 67 70 75 76 75 75 74 73 73 69 65 67 68 67 68 67 66 68 69 70 71 71 70 69 70 69 63 58 55 55 57 60 60 60 58 58 59 60 62 66 68 67 67 69 67 62 61 65 67 63 61 62 60 57 56 54 53 54 54 50 46 44 45 46
37 38 39 40 39 40 44 45 46 48 48 49 53 55 57 61 66 71 76 76 74 74 74 73 70 69 72 76 77 76 74 72 71 69 67 66 67 68 68 68 68 68 70 71 71 73 73 72 75 74 64 54 51 51 54 59 61 59 56 54 54 55 56 59 63 63 66 68 64 60 60 64 68 64 61 61 60 58 57 55 53 54 55 53 49 47 46 47
37 37 38 39 39 41 42 41 43 45 45 49 54 55 58 64 69 74 75 71 72 76 74 71 71 70 69 73 75 75 76 77 73 70 69 67 67 69 68 68 69 70 72 72 70 71 72 73 75 76 73 63 57 55 52 53 58 59 57 53 51 53 53 53 55 57 60 62 60 61 62 64 67 62 58 58 57 55 55 55 53 52 54 53 51 50 48 49
36 37 37 38 40 41 40 40 44 45 45 49 55 57 60 67 72 74 73 71 74 76 72 67 66 66 68 71 73 73 71 74 74 71 69 67 67 69 69 67 67 70 74 72 70 69 69 73 75 78 80 73 65 62 54 48 51 54 54 52 51 52 50 48 49 52 55 54 54 59 61 62 62 57 54 56 55 52 50 51 51 49 50 51 51 51 49 49
36 37 37 37 39 41 41 42 46 47 46 51 57 60 63 69 71 71 71 72 72 72 70 67 61 59 65 70 72 73 69 68 69 69 68 67 68 69 70 69 67 70 73 71 72 70 68 72 75 76 79 76 69 65 59 55 55 56 53 53 54 51 47 45 44 47 50 49 51 56 58 60 59 54 52 54 55 53 50 49 48 47 46 47 49 50 49 49
36 38 37 37 40 42 43 44 46 47 51 56 60 62 66 68 67 68 71 68 65 67 68 66 61 57 60 66 70 72 72 70 67 68 69 67 68 68 68 70 69 68 70 72 72 70 68 71 71 69 71 74 73 72 72 72 71 71 68 66 64 57 52 51 49 46 46 46 49 56 60 59 57 53 51 53 56 55 53 49 46 46 46 46 48 49 48 48
38 38 38 38 39 41 42 45 47 49 54 60 63 66 67 66 64 67 70 66 63 66 67 66 66 62 57 62 71 73 73 73 69 67 70 69 66 65 64 66 68 66 67 69 69 67 67 69 67 67 68 70 73 76 78 78 78 78 78 76 73 67 65 65 59 53 51 50 48 51 59 59 55 52 49 49 52 53 52 48 44 45 45 44 46 47 46 45
38 37 38 38 38 40 43 46 48 51 56 61 65 67 65 62 62 66 68 68 67 65 66 70 72 67 61 60 69 75 74 74 73 70 71 72 70 65 63 61 62 62 61 62 65 64 64 66 65 65 67 67 70 75 78 80 80 79 79 78 74 73 75 75 71 66 63 60 51 45 51 55 53 53 51 49 49 50 51 48 44 44 43 41 43 44 45 45
38 38 39 38 39 41 43 47 49 52 57 62 64 64 63 62 61 64 66 69 71 66 63 70 72 68 66 63 65 74 76 74 75 74 71 72 73 71 67 63 60 58 56 56 57 57 58 62 63 62 64 66 70 74 77 80 81 80 78 77 73 72 75 78 80 77 71 68 59 47 47 49 50 53 52 47 47 49 50 49 47 45 43 42 44 45 48 50
41 41 40 39 40 42 43 48 51 53 58 62 62 60 61 62 61 64 67 67 72 70 62 65 70 66 64 63 62 68 76 76 74 75 73 71 70 68 66 67 65 59 56 54 54 53 54 58 60 59 62 67 70 73 76 77 79 80 79 77 74 72 73 76 79 80 77 76 72 61 53 49 47 47 45 43 44 46 49 49 47 47 47 47 48 50 52 51
42 40 39 39 41 42 44 49 53 57 59 59 59 58 58 60 61 64 69 67 69 73 66 62 67 65 61 61 59 59 67 76 75 72 73 72 69 65 62 62 63 61 57 55 54 54 55 57 58 59 63 68 70 71 72 72 74 77 78 79 79 77 76 75 76 79 79 78 79 76 68 56 44 39 38 39 40 42 47 49 46 44 46 49 51 52 53 49
42 40 39 40 43 44 47 51 53 57 59 57 57 58 58 60 61 63 68 67 64 69 70 63 60 62 59 60 61 55 54 67 75 71 69 70 69 68 65 61 60 62 61 60 59 57 56 57 58 61 65 67 67 67 69 71 73 75 76 78 79 79 79 76 75 78 79 77 77 79 79 67 49 42 40 37 38 41 44 46 42 38 39 43 47 48 49 47
42 40 39 41 44 46 49 53 55 56 57 56 58 59 57 57 61 64 68 66 58 59 69 68 59 55 56 58 60 56 49 54 67 71 68 66 66 65 64 63 62 63 63 63 62 59 56 55 55 57 58 58 59 62 66 69 70 72 75 77 78 80 82 80 79 80 78 75 71 72 78 72 59 57 56 47 46 48 47 44 41 39 37 36 38 41 45 46
41 38 38 41 43 45 49 53 56 56 55 55 56 59 58 56 61 68 69 64 53 51 64 74 66 55 54 56 56 56 53 50 56 66 68 65 63 62 61 62 62 62 63 63 62 60 57 55 54 52 49 49 51 52 54 56 60 65 69 72 75 78 80 78 77 74 68 65 63 66 75 75 69 70 71 63 59 60 57 52 46 42 38 34 35 37 41 43
40 38 39 41 43 46 50 53 54 55 55 54 57 61 59 58 64 70 70 65 55 50 59 72 72 61 56 58 55 48 49 52 53 59 67 67 65 62 59 58 60 60 59 58 59 61 59 57 55 53 50 51 51 49 48 48 50 54 57 61 65 68 71 71 69 67 65 64 62 62 69 74 75 76 76 74 72 69 68 64 56 50 46 42 40 40 40 41
39 40 39 40 43 46 49 51 50 50 52 53 58 61 58 59 66 68 67 64 57 54 58 65 70 66 60 62 60 48 43 50 56 59 63 68 68 64 58 54 54 55 55 54 56 60 62 61 58 57 57 56 56 55 52 50 50 50 51 53 55 57 59 62 61 61 62 62 61 60 61 64 69 73 74 74 73 73 73 71 66 62 59 54 50 46 44 42
38 40 40 40 42 44 46 48 48 48 49 52 56 58 58 63 67 63 62 61 56 55 59 60 63 67 66 64 64 57 46 46 54 60 62 65 68 68 63 56 52 51 51 52 56 59 63 63 60 61 62 62 60 57 53 51 50 49 49 49 50 50 51 53 55 56 55 55 56 57 55 55 59 65 65 62 62 66 70 70 70 69 67 65 60 56 53 51
38 38 40 41 41 43 46 48 49 49 49 52 54 54 60 67 63 58 62 61 55 55 59 59 60 64 68 67 66 62 54 46 47 54 60 64 66 69 69 65 61 56 52 52 56 59 62 64 63 63 65 64 63 61 58 57 55 54 53 52 52 53 54 56 58 58 56 57 59 59 57 57 59 60 59 54 52 57 62 65 67 67 66 65 64 62 61 60
37 37 38 40 40 41 44 45 48 48 49 52 52 54 63 67 59 58 61 58 56 58 59 60 61 61 65 67 64 59 54 49 45 48 53 58 62 67 71 69 66 62 58 56 56 58 61 64 65 66 68 68 69 68 66 65 65 64 63 62 61 61 61 63 64 64 64 65 66 64 62 63 63 61 59 56 53 54 57 60 63 63 61 60 60 62 63 63
36 37 38 39 37 35 36 39 44 48 50 51 51 58 67 64 56 56 56 54 56 60 59 60 62 62 62 63 61 55 50 47 46 46 47 50 52 57 62 64 62 60 58 57 56 57 60 62 63 65 67 68 71 74 72 71 71 70 68 67 66 66 66 66 67 67 69 70 70 69 69 71 69 66 64 61 59 57 55 56 59 61 61 60 59 59 62 64
35 36 38 39 37 34 34 39 43 47 49 49 51 62 68 60 53 54 53 52 55 58 60 60 60 61 59 57 57 54 47 45 45 45 46 49 50 51 53 55 57 57 56 54 53 53 55 58 61 63 65 66 67 69 70 71 72 72 72 70 68 66 66 66 67 68 70 71 70 69 71 72 71 67 64 62 61 61 60 60 60 59 58 57 57 57 57 59
32 33 35 35 35 34 35 40 44 45 47 48 52 63 67 57 51 52 52 54 55 55 57 57 57 59 58 54 53 49 44 44 46 45 46 48 48 50 50 50 51 52 52 52 52 52 53 55 56 57 61 63 62 60 60 61 63 66 68 68 68 68 67 66 65 65 66 67 67 67 69 70 68 66 65 65 66 68 70 69 66 61 58 57 57 58 57 58
31 33 33 31 30 32 34 40 44 43 43 45 51 62 62 53 51 51 50 53 54 53 55 56 56 59 57 54 50 44 41 46 46 44 45 46 46 46 47 47 48 48 49 51 52 54 55 56 55 54 56 58 57 57 56 55 57 61 62 62 64 65 65 66 66 65 65 65 67 69 70 69 67 68 69 70 70 71 73 72 68 64 62 61 60 61 62 63
Wind_Direction
231 232 232 232 231 232 232 232 233 232 232 232 231 231 230 229 230 230 230 229 228 228 228 228 228 229 229 229 230 230 229 228 227 227 229 229 229 230 231 231 233 234 236 238 237 236 234 234 233 234 236 237 237 236 235 235 236 236 237 236 235 239 240 240 239 236 236 241 242 243 242 235 230 230 229 224 222 222 223 225 228 235 242 247 246 237 234 233
231 231 231 231 231 231 231 232 232 232 232 232 232 231 231 230 230 230 230 230 229 229 228 228 228 228 229 229 229 230 231 230 229 228 227 225 227 229 229 230 231 232 235 237 237 236 235 234 233 234 235 236 237 236 236 236 236 236 236 236 234 239 241 241 244 241 239 244 240 238 242 239 233 235 235 231 227 226 226 225 228 233 239 248 251 246 238 232
229 230 231 231 231 231 231 231 232 232 232 232 232 232 231 231 230 230 230 230 230 230 229 229 228 228 228 228 228 229 230 231 231 230 226 224 226 227 227 228 230 231 233 235 236 236 236 235 235 235 235 236 237 237 237 237 237 237 236 235 234 239 242 241 243 244 243 245 240 236 243 242 235 237 240 237 233 231 229 226 228 232 237 245 252 254 248 240
228 229 230 230 231 231 231 231 231 231 232 232 233 233 232 232 231 230 230 230 230 230 230 230 229 228 227 228 228 228 229 230 232 230 226 225 225 226 226 226 228 230 231 233 235 235 236 237 237 236 236 236 238 237 237 238 237 239 238 235 235 238 243 242 241 246 248 248 245 240 244 244 238 239 243 242 240 237 234 232 233 234 237 242 249 254 253 248
228 228 228 229 230 230 230 230 230 231 231 232 232 233 233 232 232 231 230 230 230 230 230 230 230 229 228 228 227 227 228 230 230 228 226 225 224 225 225 225 227 229 230 231 233 235 235 237 237 236 237 236 237 237 237 238 238 240 239 235 237 240 244 244 240 244 248 249 247 243 243 245 242 240 242 243 244 243 241 239 238 236 236 240 245 249 252 251
228 227 227 228 229 229 230 230 230 230 230 231 232 233 233 233 232 232 231 230 230 230 230 230 230 230 229 228 227 227 227 229 229 229 228 226 224 224 224 224 226 228 229 230 232 234 234 236 237 236 237 236 237 239 237 237 238 239 239 236 238 242 243 243 239 240 245 247 247 246 245 247 244 241 242 243 247 247 245 243 242 242 241 239 242 245 248 249
228 228 227 227 228 228 229 229 230 230 230 230 231 232 233 233 233 232 232 231 230 230 230 230 231 230 230 229 228 227 227 228 228 228 228 227 226 226 225 223 225 227 229 229 230 232 234 235 236 237 238 237 238 239 237 236 239 238 237 236 237 241 243 242 239 239 244 246 246 246 246 246 246 244 244 244 248 249 247 246 246 247 247 242 240 242 245 247
228 228 228 227 227 227 228 228 229 229 229 230 230 231 232 233 233 233 233 232 231 231 230 230 231 231 231 231 230 228 227 227 227 227 227 227 227 227 226 224 224 227 228 228 229 231 233 234 236 238 238 238 238 239 237 236 239 239 235 236 237 240 243 242 239 241 244 246 245 245 246 247 247 247 246 245 248 250 247 246 247 247 248 245 241 241 242 245
228 228 228 227 227 227 227 227 228 228 229 229 230 230 231 232 233 233 233 233 232 232 231 231 231 231 231 231 231 230 228 226 226 226 226 226 228 228 227 225 225 228 228 227 228 229 232 233 234 237 238 238 238 239 239 238 239 240 236 234 237 239 241 242 239 240 243 245 245 245 245 246 247 247 247 247 248 251 248 246 248 247 247 247 243 242 242 242
228 227 227 227 227 227 227 227 227 228 228 229 229 229 230 231 232 233 233 233 233 232 232 231 231 231 231 231 232 231 230 226 224 225 225 224 228 230 228 227 226 228 229 227 228 229 231 233 234 236 238 238 238 238 240 240 239 241 239 234 237 241 241 241 240 242 243 245 246 245 245 245 246 247 249 250 249 251 249 245 248 247 245 247 244 241 241 241
227 227 227 227 227 227 227 227 227 227 227 228 228 229 229 230 231 232 233 233 233 233 232 232 231 231 231 231 232 232 231 228 225 224 224 222 224 230 229 227 228 228 229 228 228 229 230 232 233 234 236 237 238 238 239 241 239 240 240 236 237 241 242 241 241 245 245 244 247 247 246 245 246 246 248 250 248 248 248 245 247 248 246 248 247 243 241 243
228 227 226 226 226 227 227 227 227 227 227 227 228 228 229 229 230 231 232 232 233 233 233 233 232 232 232 232 232 232 231 230 227 224 222 221 220 225 228 227 228 228 228 228 227 229 229 231 232 233 235 236 237 237 238 240 240 240 241 239 237 240 242 242 240 244 247 246 246 248 247 246 246 243 243 248 247 246 249 249 249 251 251 252 251 248 245 245
228 227 226 226 226 226 226 227 227 227 227 227 227 228 228 229 229 230 231 232 232 233 233 233 234 233 232 233 232 233 231 230 229 225 221 221 219 220 226 229 228 229 229 229 228 229 229 230 232 232 234 236 236 237 237 239 241 241 242 241 239 240 243 243 241 243 248 248 247 248 247 245 245 241 240 247 249 249 251 253 253 252 253 254 254 252 251 250
228 228 227 226 226 225 225 226 227 227 227 227 227 228 228 229 229 230 230 231 232 232 233 234 235 235 234 233 232 232 232 230 229 226 221 221 221 219 225 231 232 230 231 232 230 230 230 230 230 231 231 233 236 237 237 238 240 242 242 241 241 243 244 245 244 244 247 250 248 249 248 244 244 245 243 246 250 252 251 251 253 252 250 253 254 254 255 255
229 228 227 227 226 225 225 225 226 227 227 227 227 227 228 229 229 229 230 230 231 231 232 233 236 237 236 234 232 232 232 230 229 227 222 221 222 218 221 230 234 232 231 232 231 229 230 230 231 231 230 231 234 236 238 238 239 241 243 243 244 247 246 246 247 246 246 250 250 250 250 246 243 246 246 246 248 250 251 249 251 252 250 251 253 255 256 256
231 229 227 227 226 226 225 225 225 226 227 227 227 227 228 229 229 230 230 230 230 231 230 231 233 236 238 235 232 232 232 232 230 229 224 221 221 217 215 221 227 228 227 229 231 231 229 229 232 233 232 233 233 234 237 239 239 240 243 245 245 248 249 247 247 248 247 249 250 250 250 248 243 244 247 248 247 245 248 250 249 251 252 252 253 255 255 256
233 231 229 227 226 226 225 225 224 224 225 226 227 227 227 228 229 230 230 230 230 230 229 230 232 234 237 235 233 232 233 233 232 230 226 222 221 216 214 216 215 218 221 222 225 230 230 229 230 232 233 233 233 233 235 238 239 239 241 244 245 246 248 248 247 248 248 248 250 250 250 249 243 241 244 247 247 244 243 248 250 250 251 253 254 256 256 256
233 233 232 230 228 227 226 225 225 224 224 225 226 227 227 227 228 229 229 229 229 229 229 229 230 231 233 234 234 233 233 234 234 232 228 223 220 216 215 216 210 207 214 218 220 224 227 229 230 230 231 232 233 233 234 237 239 240 241 242 244 246 248 250 250 252 252 251 252 251 250 249 244 240 241 243 246 245 241 243 249 250 251 254 255 256 257 257
233 233 233 231 230 228 227 226 225 224 224 224 225 226 226 226 226 227 228 229 228 227 227 227 228 230 231 233 235 234 233 234 233 232 229 224 221 216 215 217 214 209 210 214 218 221 225 228 230 230 230 232 234 235 237 238 238 239 240 241 243 246 248 250 252 254 254 251 250 250 249 249 244 238 238 241 243 245 243 242 247 251 251 254 256 256 257 258
232 233 233 232 231 229 229 227 225 224 224 223 224 224 224 224 225 225 226 228 228 227 227 228 229 231 232 231 233 233 232 233 232 230 228 225 221 218 216 218 220 219 216 213 213 217 223 226 229 232 232 233 234 235 236 236 236 237 238 239 242 245 247 249 251 252 253 251 249 247 246 246 244 237 236 240 241 243 244 243 246 251 252 252 254 256 256 257
229 231 231 232 231 230 229 228 227 225 223 223 223 224 224 225 226 226 227 227 228 228 229 229 230 231 230 228 230 231 230 230 230 228 227 225 222 219 217 218 222 224 222 219 213 212 219 224 226 232 234 233 232 233 234 233 234 235 236 237 239 243 245 248 250 250 250 251 250 247 245 244 245 240 235 239 243 245 246 245 246 250 252 251 251 253 254 255
227 230 230 230 230 230 230 229 228 226 225 223 222 223 225 226 228 228 229 229 228 228 229 229 230 230 229 227 228 230 230 230 230 229 228 226 222 221 219 219 221 225 225 222 217 215 218 220 222 228 233 233 231 232 233 232 233 234 234 234 236 240 242 246 249 247 247 249 250 249 247 245 246 245 240 240 244 247 247 247 245 246 250 251 250 250 251 253
228 229 228 228 228 229 229 229 228 227 226 225 223 223 224 225 226 227 227 229 228 227 228 228 228 229 228 226 227 229 230 230 231 230 229 228 225 224 223 221 221 224 226 224 221 220 221 222 226 230 231 231 230 230 231 231 232 233 233 232 234 239 242 245 248 248 247 247 248 248 247 246 246 246 244 243 244 246 248 248 246 244 247 250 251 249 248 251
228 227 225 225 226 227 228 228 228 228 227 226 225 222 222 223 223 224 224 226 227 227 227 228 229 229 228 227 227 229 231 232 231 231 231 231 229 227 226 225 224 225 226 226 225 224 224 227 231 236 236 234 231 229 229 229 231 232 233 234 234 237 241 244 249 252 250 248 248 248 247 246 246 248 247 244 243 245 247 248 248 245 245 248 251 251 249 249
225 224 222 221 222 224 226 227 227 227 227 227 225 222 221 221 221 222 223 224 226 225 226 227 227 227 227 227 227 228 231 232 231 230 230 230 230 229 227 227 227 226 226 227 227 226 227 230 231 235 240 238 235 233 231 231 232 232 232 233 233 235 239 243 248 251 251 249 248 249 247 245 245 248 248 244 242 244 246 247 248 248 247 247 249 251 251 250
223 222 220 219 220 221 223 225 225 225 226 225 224 222 221 220 219 221 222 223 224 224 224 224 224 224 224 225 226 226 228 229 229 229 229 228 227 227 227 226 227 227 226 226 227 226 227 230 230 232 239 240 237 235 234 234 235 235 235 233 233 232 235 240 244 247 249 248 248 248 247 245 243 246 247 246 244 243 246 248 248 248 248 249 249 249 250 251
222 221 220 219 219 217 219 222 223 224 225 224 223 222 221 220 218 218 220 222 224 222 222 223 223 223 224 224 225 225 226 226 226 227 228 227 226 225 225 225 224 226 225 225 227 226 225 228 229 229 236 239 236 235 234 234 236 238 238 236 235 234 233 236 240 244 246 246 247 247 248 247 243 243 246 247 245 242 244 248 250 249 248 248 248 248 250 252
221 220 219 218 217 216 216 218 220 222 223 222 222 221 220 219 216 216 217 220 223 221 219 221 221 221 222 223 224 225 226 226 226 227 227 227 226 226 226 225 224 225 225 225 227 226 223 225 226 227 233 237 235 234 234 234 234 237 239 238 237 236 235 235 238 242 245 246 247 247 249 250 245 243 245 246 245 244 243 246 250 251 250 248 247 249 253 254
220 219 218 216 215 214 214 215 215 216 217 217 217 216 216 215 213 213 214 218 222 221 218 219 219 218 218 219 221 224 225 225 226 227 226 226 226 226 227 227 225 225 226 226 227 226 223 222 224 227 230 233 231 230 231 231 231 234 236 237 237 237 238 238 240 242 245 248 248 247 249 252 249 245 247 247 245 245 244 245 249 251 252 251 249 249 252 255
218 217 217 215 213 211 212 215 213 209 209 210 211 212 211 210 210 209 211 215 219 219 217 218 218 217 217 216 217 220 223 223 224 225 224 224 225 225 226 226 225 224 225 226 226 225 222 220 223 225 225 224 222 223 225 225 227 228 230 233 234 236 238 240 242 244 246 248 248 247 249 254 252 246 247 249 248 247 245 245 248 252 254 254 252 251 252 254
217 216 216 215 211 209 210 212 211 207 205 203 205 207 206 206 208 209 210 214 217 219 217 217 217 218 217 217 216 218 220 221 222 222 223 222 222 222 222 222 221 221 223 224 224 224 222 220 222 223 223 220 216 218 220 221 223 225 228 231 232 235 238 242 243 245 248 248 248 248 249 253 252 246 246 250 250 249 248 246 246 249 254 256 256 254 253 254
216 215 215 213 210 208 207 206 207 206 205 204 202 202 202 204 206 209 210 211 214 217 217 216 217 217 217 218 218 218 220 222 221 221 223 224 223 222 222 222 221 221 222 222 222 223 222 221 221 222 224 225 222 221 218 218 221 223 226 230 233 235 238 243 246 246 249 249 248 248 249 253 252 246 247 250 250 251 251 250 248 248 251 255 256 255 255 256
215 213 214 213 209 206 203 202 202 201 203 206 202 199 202 205 206 208 208 209 213 215 215 215 217 218 218 217 217 217 219 223 223 222 223 223 224 225 224 224 224 224 224 224 223 223 222 222 222 221 223 226 227 227 222 218 220 223 225 228 231 234 237 243 247 247 248 248 247 247 249 254 252 245 246 249 250 251 251 251 251 249 251 254 255 256 254 254
213 212 213 212 208 205 202 201 200 197 198 203 200 199 203 207 207 206 207 208 211 214 215 215 215 217 219 219 217 214 215 219 221 220 220 219 220 222 222 223 223 224 224 224 225 224 223 224 224 223 223 225 228 229 228 226 228 229 227 228 229 230 236 244 246 246 246 244 245 246 249 254 253 245 245 249 251 252 251 252 253 251 251 253 254 256 255 254
211 210 211 210 207 205 203 201 200 197 198 199 198 200 204 207 206 205 206 206 207 213 215 213 212 214 217 218 216 213 212 215 216 216 217 218 219 220 221 222 223 223 223 223 224 225 226 228 229 228 227 228 230 234 236 237 240 240 239 239 237 232 236 243 243 242 241 239 240 244 247 252 253 247 245 249 252 253 252 252 253 253 251 250 250 252 255 255
209 209 209 209 207 206 204 202 200 199 199 199 201 203 205 206 205 203 204 204 204 210 213 211 211 213 214 214 212 211 212 214 215 215 215 218 221 221 221 222 223 225 225 225 226 226 227 230 231 231 230 230 232 236 240 242 246 247 247 248 247 245 246 248 246 243 243 241 238 241 247 252 254 250 246 247 250 253 253 251 249 249 249 247 248 250 253 255
208 208 209 208 206 205 203 201 200 200 201 203 205 206 204 205 205 202 202 202 203 208 213 212 212 213 214 213 211 210 211 213 215 217 218 219 221 221 219 219 221 224 226 228 228 229 230 232 233 233 233 233 232 235 238 241 245 247 247 248 249 251 253 253 250 247 246 247 242 237 245 251 253 251 248 248 250 253 257 256 251 249 249 246 246 249 252 256
204 206 207 205 204 204 203 201 202 202 204 206 207 207 204 204 203 200 199 201 202 205 212 215 214 214 215 215 213 211 211 212 214 217 219 221 223 222 222 222 222 224 227 228 230 230 230 233 234 233 234 234 233 234 236 238 243 247 248 249 249 251 251 252 252 250 248 250 248 239 240 245 248 249 250 252 252 255 260 263 260 255 253 249 247 250 255 259
200 203 204 203 201 202 201 202 203 205 208 208 207 206 205 203 201 199 198 199 202 205 210 213 214 214 215 214 214 214 214 214 214 216 217 220 222 223 225 226 227 228 228 229 231 231 230 232 233 233 234 234 234 235 236 236 239 245 249 251 252 253 252 252 253 252 251 252 252 247 242 240 243 246 250 254 254 255 259 262 263 261 256 252 249 253 259 261
200 202 202 202 201 200 201 203 205 207 210 209 206 206 205 202 200 199 199 200 203 206 209 212 213 216 217 216 214 214 216 217 217 219 219 221 222 223 224 225 226 228 229 229 230 230 230 232 233 233 233 234 234 235 237 238 238 241 244 248 251 253 255 254 254 254 255 255 254 254 249 243 239 242 248 256 258 260 261 260 264 267 263 257 254 255 259 261
200 201 200 199 201 200 201 205 207 208 210 209 206 205 204 202 199 197 197 199 204 209 210 211 214 217 219 218 214 213 217 219 219 220 221 222 223 223 224 225 227 229 230 230 230 230 230 230 232 234 234 235 237 237 238 239 238 238 240 243 246 250 253 255 255 255 256 257 257 258 256 247 239 240 245 251 258 263 265 263 262 265 265 263 260 257 257 259
199 199 198 199 202 202 203 206 207 209 209 207 206 205 202 201 198 194 193 196 203 211 211 210 212 216 218 219 215 213 217 219 218 220 221 222 223 224 225 227 229 231 231 231 233 232 229 226 228 232 233 234 236 237 238 239 238 237 238 240 241 244 248 251 254 255 257 260 259 260 259 250 241 244 246 246 252 256 260 263 260 258 260 263 262 256 255 257
198 198 198 202 204 205 207 207 208 209 207 204 205 203 201 199 195 192 191 193 200 211 213 210 209 210 214 216 215 215 219 221 220 220 221 222 223 224 224 225 226 228 228 227 227 225 224 222 222 226 229 231 232 231 233 235 235 235 236 238 239 242 245 248 253 255 257 261 259 259 260 251 245 250 251 246 249 252 253 256 257 256 258 260 258 254 253 255
197 197 199 204 205 206 209 209 208 209 207 205 204 201 200 198 193 192 194 195 200 209 212 212 210 209 209 210 209 212 217 219 219 219 221 222 223 223 223 222 222 223 225 225 223 222 223 224 224 224 226 227 226 224 225 227 230 233 234 236 239 241 244 247 252 254 256 259 260 261 261 253 248 254 256 252 252 254 254 255 255 256 259 260 259 256 253 253
200 198 201 207 208 207 209 210 210 208 207 208 205 202 202 197 190 190 195 198 203 208 209 210 211 212 211 209 208 211 216 216 215 215 218 221 222 222 223 222 220 219 221 223 224 224 226 229 230 231 231 229 229 230 232 234 236 235 234 236 239 242 244 247 251 255 256 259 261 263 263 258 252 255 259 259 258 257 257 258 258 256 257 258 259 260 259 257
206 202 202 206 209 208 208 209 209 208 208 207 204 203 201 193 188 191 195 198 203 208 207 208 210 213 213 210 211 215 219 219 216 213 215 219 221 222 224 224 221 217 217 219 222 224 226 228 230 233 235 236 237 238 239 239 239 237 237 239 243 245 247 249 252 255 258 262 264 265 267 265 258 256 260 262 262 260 259 260 261 260 260 260 260 260 261 262
209 207 205 206 207 206 207 209 208 208 207 203 200 200 196 190 190 194 196 198 203 205 206 207 208 211 213 212 212 217 223 225 220 214 214 217 219 221 224 226 226 226 226 226 226 225 226 228 229 232 235 236 238 239 239 239 240 241 241 242 245 248 251 254 255 256 260 265 266 267 271 271 264 259 262 265 266 264 262 262 262 263 265 265 263 261 260 260
210 209 208 207 209 209 208 208 207 206 203 198 197 197 191 189 193 196 196 201 205 204 205 209 209 210 211 213 215 219 224 227 222 215 213 217 219 221 223 226 228 231 233 232 229 227 228 229 230 232 235 237 238 239 240 241 243 244 245 245 247 249 252 255 256 257 260 265 267 268 272 272 268 264 264 267 269 268 267 265 264 265 267 267 266 262 259 259
209 207 204 204 209 211 210 210 208 205 201 196 195 193 189 189 192 196 198 203 206 205 206 208 211 211 211 213 216 219 222 225 223 219 216 218 221 222 222 224 225 227 228 228 228 229 231 232 233 233 235 237 239 242 243 243 245 247 248 248 249 250 253 256 258 258 260 263 265 268 270 271 270 268 266 267 268 269 269 269 268 268 269 269 268 265 261 259
206 204 201 202 205 207 208 208 207 204 202 199 195 192 191 191 191 195 201 204 206 207 207 207 210 211 211 213 217 220 223 225 225 222 219 220 222 223 222 221 221 222 224 226 228 230 232 234 236 236 237 238 240 244 245 246 247 249 250 251 251 252 253 256 258 259 261 263 264 266 267 267 268 269 269 267 266 266 268 269 269 269 269 269 269 267 264 261
203 201 200 202 206 206 206 204 203 202 203 201 195 192 195 195 192 195 201 203 204 207 209 209 210 210 211 213 215 219 221 221 221 218 216 218 221 222 223 220 219 222 225 227 229 230 231 234 236 236 237 238 240 241 243 244 245 246 247 249 250 252 254 257 260 261 262 263 264 264 265 265 266 269 270 267 264 264 266 267 268 267 266 265 264 264 264 264
200 200 198 200 204 205 205 203 201 200 199 197 194 194 197 197 193 195 200 202 204 207 208 210 210 209 211 212 212 215 217 217 219 217 215 216 217 218 220 220 222 225 225 226 229 230 231 234 235 235 236 237 238 239 240 242 244 245 245 248 251 254 257 259 260 261 262 263 264 265 266 267 266 267 267 266 263 263 264 266 269 269 267 264 261 260 261 262
Height
5656 5662 5667 5673 5678 5682 5687 5692 5696 5701 5705 5709 5714 5718 5723 5727 5731 5734 5737 5741 5744 5748 5751 5755 5759 5763 5767 5771 5775 5778 5781 5785 5789 5793 5800 5807 5809 5810 5814 5817 5820 5823 5823 5824 5828 5831 5833 5836 5838 5840 5842 5844 5846 5849 5851 5853 5854 5856 5858 5861 5863 5865 5864 5864 5864 5865 5865 5866 5870 5872 5872 5872 5873 5875 5875 5876 5877 5878 5878 5879 5879 5879 5879 5880 5881 5881 5882 5882
5648 5653 5659 5664 5670 5675 5680 5684 5689 5694 5699 5703 5707 5712 5717 5721 5726 5729 5733 5736 5740 5743 5746 5750 5753 5757 5761 5765 5769 5773 5776 5780 5783 5789 5798 5803 5803 5805 5811 5814 5816 5819 5820 5821 5825 5828 5830 5832 5834 5836 5838 5840 5843 5846 5849 5851 5852 5854 5856 5859 5862 5862 5861 5863 5864 5864 5866 5866 5868 5870 5869 5871 5873 5874 5874 5875 5876 5877 5877 5878 5878 5878 5879 5879 5880 5880 5881 5881
5639 5645 5650 5656 5662 5667 5672 5677 5682 5687 5692 5697 5701 5706 5711 5715 5720 5724 5728 5731 5735 5739 5742 5745 5748 5752 5755 5759 5763 5768 5771 5774 5778 5787 5795 5797 5799 5802 5807 5810 5813 5814 5815 5817 5821 5824 5826 5828 5830 5833 5835 5837 5840 5844 5846 5848 5850 5852 5854 5857 5861 5859 5858 5862 5862 5864 5866 5865 5866 5868 5868 5869 5871 5873 5873 5873 5875 5875 5876 5877 5877 5878 5878 5878 5879 5879 5880 5880
5630 5636 5642 5647 5653 5659 5665 5670 5675 5680 5685 5690 5695 5699 5704 5709 5714 5718 5723 5726 5730 5734 5737 5740 5743 5746 5749 5753 5758 5762 5766 5769 5775 5786 5791 5793 5796 5800 5803 5807 5808 5809 5811 5813 5816 5819 5823 5825 5827 5830 5832 5834 5837 5840 5843 5846 5849 5850 5852 5857 5857 5856 5856 5858 5860 5864 5865 5864 5865 5868 5867 5867 5870 5872 5871 5872 5874 5874 5875 5876 5877 5878 5878 5878 5878 5878 5879 5879
5620 5627 5633 5639 5645 5651 5657 5663 5668 5674 5678 5684 5688 5693 5698 5703 5707 5712 5717 5721 5725 5729 5732 5735 5738 5741 5744 5748 5752 5757 5761 5764 5772 5782 5785 5789 5793 5795 5799 5802 5803 5804 5807 5810 5812 5815 5819 5822 5824 5826 5828 5831 5833 5836 5840 5844 5847 5847 5850 5854 5854 5854 5854 5854 5860 5863 5863 5862 5864 5865 5865 5866 5869 5869 5869 5871 5872 5872 5874 5876 5876 5877 5877 5877 5877 5877 5878 5878
5610 5617 5624 5630 5636 5642 5649 5655 5661 5666 5672 5677 5682 5687 5692 5696 5701 5706 5711 5715 5719 5723 5727 5730 5733 5736 5739 5743 5747 5751 5755 5761 5770 5777 5780 5785 5788 5789 5794 5798 5799 5800 5802 5806 5809 5811 5815 5818 5820 5822 5824 5827 5830 5832 5838 5841 5842 5844 5848 5851 5851 5851 5851 5852 5858 5860 5859 5860 5862 5863 5865 5865 5866 5866 5867 5869 5870 5870 5873 5874 5874 5875 5876 5876 5876 5876 5876 5877
5600 5607 5614 5621 5627 5634 5640 5647 5653 5659 5664 5670 5675 5680 5685 5690 5695 5699 5705 5709 5713 5718 5722 5725 5728 5731 5734 5737 5741 5744 5750 5759 5766 5772 5776 5779 5782 5785 5789 5792 5794 5795 5798 5802 5805 5808 5811 5814 5816 5819 5822 5824 5827 5829 5834 5837 5838 5841 5845 5847 5849 5848 5847 5850 5855 5856 5856 5857 5859 5862 5863 5864 5864 5865 5866 5868 5868 5868 5871 5872 5873 5874 5874 5875 5875 5875 5875 5875
5590 5597 5605 5612 5619 5625 5632 5638 5645 5651 5657 5662 5668 5673 5678 5684 5688 5693 5698 5703 5707 5712 5716 5719 5722 5726 5730 5732 5735 5738 5746 5756 5763 5767 5771 5775 5778 5781 5785 5788 5790 5790 5794 5798 5802 5805 5806 5810 5813 5816 5819 5822 5825 5826 5830 5833 5833 5836 5841 5844 5845 5844 5844 5848 5852 5853 5853 5854 5857 5859 5861 5862 5862 5863 5865 5867 5866 5866 5868 5870 5871 5872 5872 5873 5873 5874 5874 5874
5580 5588 5595 5602 5610 5617 5623 5630 5636 5643 5649 5655 5661 5667 5672 5677 5682 5687 5691 5696 5701 5705 5710 5714 5717 5721 5724 5727 5729 5733 5743 5754 5759 5762 5765 5771 5775 5777 5782 5785 5787 5788 5791 5796 5799 5801 5803 5806 5810 5812 5815 5818 5821 5823 5825 5827 5829 5831 5837 5840 5839 5840 5842 5845 5848 5850 5850 5851 5854 5857 5858 5860 5860 5862 5865 5865 5865 5864 5866 5868 5869 5870 5870 5871 5872 5873 5873 5873
5571 5579 5586 5593 5601 5608 5615 5622 5628 5635 5642 5648 5654 5660 5665 5670 5676 5680 5685 5690 5695 5699 5704 5708 5712 5715 5718 5721 5722 5729 5742 5750 5754 5756 5760 5767 5771 5773 5778 5781 5783 5785 5788 5792 5795 5798 5800 5804 5807 5809 5811 5814 5817 5819 5821 5822 5825 5827 5831 5835 5835 5838 5840 5842 5845 5847 5848 5849 5851 5853 5855 5857 5858 5861 5864 5864 5863 5863 5864 5865 5866 5867 5868 5869 5870 5871 5871 5872
5564 5570 5577 5584 5591 5598 5606 5613 5620 5627 5634 5641 5646 5653 5659 5664 5669 5674 5679 5683 5688 5693 5698 5702 5706 5709 5712 5714 5717 5728 5740 5745 5750 5752 5754 5762 5767 5769 5773 5776 5779 5781 5784 5788 5792 5794 5798 5800 5802 5805 5807 5810 5813 5816 5817 5819 5822 5823 5825 5830 5833 5835 5836 5839 5844 5844 5844 5847 5848 5850 5852 5854 5856 5861 5863 5860 5860 5861 5861 5863 5864 5865 5866 5867 5867 5869 5869 5870
5556 5562 5569 5575 5582 5589 5597 5604 5612 5619 5626 5633 5639 5646 5652 5657 5661 5667 5673 5677 5682 5687 5691 5696 5698 5702 5705 5706 5715 5729 5736 5741 5745 5746 5750 5757 5762 5766 5769 5772 5774 5777 5780 5783 5788 5791 5794 5796 5798 5801 5803 5806 5808 5810 5813 5815 5817 5818 5821 5826 5830 5831 5833 5837 5841 5840 5840 5844 5846 5847 5849 5852 5855 5860 5860 5857 5857 5858 5859 5861 5863 5864 5865 5865 5866 5867 5867 5868
5548 5554 5561 5567 5574 5581 5588 5596 5604 5611 5618 5625 5632 5638 5644 5650 5655 5660 5666 5671 5676 5681 5686 5690 5692 5696 5697 5701 5717 5726 5729 5735 5737 5740 5747 5752 5757 5763 5765 5767 5770 5773 5776 5780 5785 5787 5789 5791 5793 5796 5799 5802 5804 5805 5810 5812 5812 5815 5818 5822 5826 5827 5830 5834 5836 5837 5838 5840 5843 5844 5845 5849 5854 5857 5857 5854 5855 5857 5858 5860 5860 5861 5863 5863 5864 5864 5865 5866
5541 5546 5553 5559 5566 5574 5580 5587 5595 5602 5610 5617 5624 5631 5637 5642 5648 5653 5659 5665 5670 5675 5681 5685 5687 5688 5689 5701 5716 5718 5721 5728 5729 5735 5745 5748 5753 5759 5761 5764 5766 5769 5772 5776 5781 5782 5784 5787 5788 5791 5794 5797 5800 5802 5806 5807 5809 5812 5814 5818 5822 5823 5827 5830 5832 5834 5835 5835 5839 5841 5841 5847 5852 5854 5855 5853 5854 5856 5857 5857 5857 5858 5860 5860 5861 5862 5863 5865
5533 5539 5545 5551 5558 5566 5573 5579 5586 5594 5601 5609 5616 5623 5629 5635 5641 5647 5652 5658 5664 5669 5677 5682 5682 5680 5683 5698 5708 5709 5715 5720 5724 5734 5741 5744 5748 5754 5759 5761 5761 5764 5769 5771 5774 5776 5779 5783 5783 5786 5790 5793 5796 5798 5801 5802 5806 5809 5810 5816 5820 5820 5823 5826 5827 5829 5831 5832 5835 5838 5838 5844 5851 5852 5852 5852 5852 5854 5853 5854 5854 5855 5857 5858 5859 5860 5861 5863
5524 5531 5538 5544 5551 5558 5565 5572 5579 5586 5593 5601 5608 5615 5622 5628 5633 5639 5645 5652 5657 5663 5672 5675 5675 5674 5677 5690 5699 5703 5709 5715 5723 5730 5736 5741 5744 5749 5754 5756 5756 5759 5763 5766 5769 5771 5775 5778 5779 5782 5787 5789 5791 5795 5797 5798 5802 5807 5809 5814 5817 5817 5818 5820 5823 5824 5827 5829 5831 5834 5835 5840 5848 5849 5849 5850 5850 5851 5851 5851 5852 5853 5854 5856 5857 5858 5859 5861
5516 5523 5530 5537 5544 5551 5558 5565 5572 5579 5586 5592 5599 5607 5614 5621 5627 5633 5638 5644 5648 5657 5665 5666 5669 5670 5669 5679 5691 5698 5706 5714 5721 5726 5733 5737 5739 5745 5748 5749 5751 5753 5757 5761 5765 5767 5769 5771 5773 5777 5781 5782 5786 5791 5791 5792 5798 5804 5807 5810 5812 5812 5811 5814 5818 5820 5822 5825 5826 5830 5832 5836 5843 5845 5846 5847 5846 5847 5848 5848 5848 5850 5852 5854 5855 5856 5857 5858
5509 5515 5522 5529 5536 5543 5550 5558 5566 5573 5579 5586 5592 5599 5606 5613 5619 5623 5628 5635 5641 5649 5654 5654 5659 5658 5657 5672 5688 5697 5707 5712 5716 5722 5727 5730 5734 5739 5741 5743 5747 5748 5752 5756 5760 5762 5763 5765 5767 5770 5772 5776 5781 5784 5785 5790 5797 5802 5804 5806 5806 5806 5807 5810 5816 5817 5818 5822 5823 5826 5829 5831 5837 5841 5842 5843 5842 5843 5845 5845 5846 5848 5850 5851 5853 5854 5855 5856
5502 5508 5514 5521 5528 5535 5543 5551 5559 5566 5573 5579 5585 5590 5596 5602 5607 5611 5617 5624 5629 5636 5639 5641 5648 5648 5656 5678 5690 5697 5704 5706 5709 5713 5717 5722 5728 5733 5735 5738 5741 5743 5745 5749 5755 5758 5759 5761 5761 5762 5767 5772 5777 5780 5785 5792 5796 5798 5799 5800 5801 5803 5805 5808 5812 5812 5813 5817 5819 5822 5825 5826 5831 5836 5838 5838 5838 5839 5841 5843 5843 5846 5848 5849 5850 5851 5852 5853
5496 5501 5507 5514 5521 5528 5535 5542 5551 5559 5566 5572 5576 5580 5583 5588 5593 5599 5607 5612 5619 5628 5634 5640 5647 5650 5663 5681 5686 5690 5696 5696 5697 5701 5706 5715 5723 5727 5729 5731 5734 5736 5738 5743 5749 5753 5756 5756 5755 5760 5767 5772 5776 5779 5785 5790 5792 5793 5794 5795 5798 5800 5802 5805 5808 5807 5806 5810 5814 5817 5819 5820 5824 5831 5834 5833 5834 5836 5838 5841 5842 5844 5846 5847 5848 5848 5849 5850
5491 5496 5500 5507 5514 5521 5527 5535 5543 5551 5558 5563 5567 5570 5574 5582 5589 5597 5606 5611 5617 5626 5632 5638 5644 5648 5661 5674 5676 5679 5683 5682 5684 5692 5699 5708 5716 5720 5721 5724 5728 5731 5734 5738 5743 5747 5749 5750 5755 5762 5767 5769 5772 5775 5780 5784 5786 5787 5790 5793 5795 5796 5799 5802 5803 5802 5801 5804 5809 5811 5813 5815 5818 5825 5830 5830 5831 5833 5836 5839 5841 5843 5844 5844 5845 5845 5846 5847
5487 5490 5495 5501 5507 5514 5521 5528 5535 5542 5548 5553 5558 5563 5573 5585 5592 5600 5607 5607 5613 5621 5624 5631 5637 5642 5654 5665 5667 5668 5671 5674 5680 5687 5693 5701 5708 5712 5715 5720 5724 5727 5732 5735 5737 5740 5741 5745 5755 5760 5762 5764 5766 5770 5775 5778 5780 5781 5785 5789 5790 5792 5796 5798 5796 5796 5797 5799 5801 5804 5808 5811 5814 5818 5825 5828 5829 5831 5833 5835 5838 5840 5840 5841 5841 5842 5843 5843
5483 5487 5491 5495 5501 5508 5514 5521 5528 5533 5538 5545 5552 5562 5576 5586 5589 5596 5599 5599 5607 5613 5616 5622 5629 5636 5648 5656 5659 5661 5665 5670 5676 5683 5690 5696 5704 5708 5712 5718 5722 5725 5728 5730 5733 5735 5737 5744 5752 5756 5758 5760 5762 5766 5769 5772 5775 5776 5779 5783 5786 5790 5792 5792 5791 5791 5792 5793 5795 5799 5802 5806 5809 5812 5820 5826 5827 5828 5829 5831 5834 5837 5837 5837 5838 5839 5840 5840
5480 5483 5486 5491 5497 5502 5508 5515 5519 5524 5532 5539 5548 5562 5574 5578 5582 5588 5591 5593 5600 5605 5610 5617 5625 5632 5641 5649 5655 5658 5660 5665 5672 5680 5687 5693 5700 5705 5710 5716 5721 5722 5724 5729 5732 5733 5736 5742 5748 5752 5755 5756 5759 5762 5764 5767 5770 5772 5775 5779 5783 5787 5788 5789 5787 5786 5787 5787 5791 5794 5795 5800 5805 5808 5815 5822 5823 5824 5826 5827 5829 5832 5834 5834 5834 5836 5838 5838
5477 5479 5482 5488 5492 5497 5504 5508 5512 5521 5528 5533 5544 5559 5566 5569 5576 5583 5585 5587 5589 5595 5602 5609 5616 5623 5632 5642 5649 5653 5656 5660 5666 5673 5680 5687 5695 5700 5706 5711 5713 5715 5721 5727 5729 5731 5735 5739 5744 5748 5749 5751 5754 5758 5761 5765 5767 5768 5771 5774 5779 5783 5785 5785 5783 5781 5781 5784 5787 5788 5789 5796 5802 5804 5809 5816 5819 5820 5821 5822 5825 5828 5830 5830 5832 5834 5835 5835
5473 5476 5480 5484 5488 5494 5499 5502 5512 5519 5520 5527 5542 5553 5557 5563 5574 5578 5579 5580 5579 5584 5592 5598 5606 5614 5624 5634 5642 5649 5650 5651 5658 5667 5673 5680 5688 5692 5698 5702 5704 5710 5718 5722 5722 5724 5731 5736 5741 5744 5744 5746 5749 5752 5757 5761 5764 5765 5766 5770 5774 5777 5779 5779 5778 5776 5776 5780 5781 5782 5785 5791 5796 5800 5805 5810 5814 5817 5817 5817 5821 5824 5826 5828 5829 5831 5831 5831
5469 5473 5477 5480 5485 5490 5494 5502 5509 5509 5514 5529 5540 5546 5550 5560 5569 5571 5573 5571 5566 5573 5585 5591 5599 5610 5622 5630 5637 5641 5639 5643 5655 5662 5668 5676 5681 5684 5687 5692 5698 5705 5711 5713 5711 5716 5728 5733 5736 5739 5742 5742 5744 5748 5753 5758 5761 5760 5762 5766 5769 5771 5773 5773 5773 5770 5770 5775 5775 5776 5782 5785 5790 5797 5802 5804 5807 5812 5814 5814 5816 5819 5822 5825 5826 5827 5827 5826
5467 5470 5473 5478 5482 5486 5493 5499 5501 5505 5518 5529 5533 5539 5546 5555 5561 5563 5564 5556 5552 5566 5581 5587 5596 5610 5619 5623 5629 5631 5633 5645 5654 5657 5666 5672 5675 5678 5681 5687 5695 5700 5704 5705 5705 5716 5728 5729 5731 5737 5738 5738 5741 5746 5749 5753 5755 5755 5756 5760 5763 5765 5767 5768 5766 5764 5766 5769 5768 5774 5780 5779 5784 5794 5797 5797 5800 5806 5811 5811 5811 5813 5817 5821 5823 5823 5821 5820
5464 5467 5471 5475 5478 5483 5489 5493 5497 5507 5516 5519 5523 5531 5539 5547 5551 5552 5550 5543 5547 5565 5577 5583 5592 5603 5608 5613 5621 5624 5632 5644 5648 5652 5662 5665 5667 5673 5677 5684 5692 5696 5698 5700 5705 5714 5719 5723 5728 5731 5730 5733 5739 5741 5744 5747 5748 5750 5752 5754 5758 5760 5762 5763 5761 5762 5764 5762 5763 5774 5779 5774 5778 5789 5790 5790 5795 5801 5805 5808 5808 5809 5811 5815 5819 5818 5816 5815
5461 5465 5468 5470 5475 5482 5485 5489 5497 5503 5506 5511 5518 5525 5533 5538 5537 5537 5534 5532 5545 5562 5570 5577 5585 5593 5599 5607 5614 5618 5628 5636 5639 5647 5655 5657 5662 5668 5672 5679 5686 5689 5691 5694 5699 5704 5710 5717 5720 5720 5723 5731 5735 5734 5736 5739 5741 5745 5747 5749 5753 5755 5757 5757 5756 5759 5758 5754 5762 5775 5778 5771 5770 5781 5784 5784 5790 5796 5799 5804 5805 5805 5805 5809 5812 5813 5812 5811
5458 5462 5464 5468 5474 5479 5482 5488 5495 5498 5502 5508 5514 5520 5526 5525 5524 5523 5522 5531 5549 5557 5562 5571 5579 5586 5594 5602 5607 5614 5623 5629 5635 5642 5646 5649 5655 5658 5663 5669 5674 5680 5682 5684 5689 5694 5703 5709 5710 5715 5722 5726 5727 5727 5729 5732 5736 5740 5742 5746 5749 5749 5752 5751 5751 5754 5749 5751 5764 5772 5772 5764 5760 5772 5780 5779 5785 5790 5792 5797 5801 5801 5801 5803 5805 5806 5806 5805
5455 5458 5461 5466 5471 5474 5479 5487 5492 5496 5501 5504 5507 5513 5515 5512 5511 5511 5520 5538 5547 5548 5557 5567 5575 5583 5592 5598 5603 5611 5619 5622 5629 5636 5640 5645 5649 5652 5657 5661 5666 5672 5673 5676 5683 5689 5698 5704 5708 5714 5717 5719 5720 5721 5723 5728 5732 5736 5739 5743 5744 5744 5746 5744 5745 5747 5744 5750 5761 5764 5763 5755 5752 5769 5777 5775 5779 5783 5787 5790 5794 5797 5797 5797 5798 5798 5800 5800
5452 5455 5459 5463 5467 5472 5478 5483 5485 5490 5497 5500 5501 5505 5505 5501 5499 5505 5523 5537 5537 5543 5557 5566 5574 5583 5588 5592 5597 5607 5616 5619 5625 5632 5636 5641 5645 5649 5655 5659 5664 5667 5668 5675 5681 5686 5694 5698 5700 5705 5708 5713 5714 5715 5722 5728 5732 5734 5737 5740 5739 5738 5739 5737 5739 5741 5741 5748 5754 5755 5755 5746 5749 5767 5772 5770 5774 5777 5782 5784 5786 5791 5791 5791 5792 5791 5794 5794
5448 5452 5456 5460 5465 5470 5474 5477 5480 5485 5493 5494 5494 5497 5495 5492 5497 5511 5522 5529 5535 5547 5557 5563 5574 5580 5582 5587 5593 5603 5611 5614 5621 5628 5630 5633 5637 5641 5647 5652 5657 5659 5665 5673 5675 5681 5689 5689 5691 5699 5707 5712 5714 5717 5723 5727 5728 5729 5732 5732 5730 5731 5733 5733 5736 5737 5738 5744 5747 5750 5748 5740 5746 5763 5767 5767 5769 5770 5775 5778 5780 5784 5785 5785 5785 5784 5786 5787
5445 5448 5453 5457 5461 5465 5469 5473 5477 5482 5485 5487 5488 5488 5486 5488 5500 5512 5518 5528 5540 5548 5554 5563 5571 5573 5576 5584 5591 5600 5606 5609 5616 5621 5624 5627 5630 5635 5642 5647 5651 5653 5659 5665 5669 5678 5685 5685 5691 5703 5709 5713 5716 5717 5718 5720 5719 5720 5722 5721 5721 5727 5731 5730 5731 5733 5735 5738 5740 5743 5741 5736 5743 5759 5764 5764 5763 5763 5768 5773 5775 5777 5778 5779 5779 5779 5779 5779
5441 5445 5449 5454 5458 5463 5467 5470 5474 5478 5479 5481 5481 5479 5481 5490 5501 5510 5517 5530 5539 5543 5551 5559 5561 5564 5571 5577 5584 5593 5600 5606 5611 5614 5619 5624 5626 5632 5639 5643 5648 5651 5656 5662 5667 5675 5681 5682 5691 5700 5703 5709 5713 5712 5712 5714 5713 5713 5714 5714 5719 5725 5725 5725 5727 5729 5730 5729 5732 5737 5736 5735 5743 5754 5759 5759 5758 5758 5760 5765 5770 5770 5771 5774 5774 5773 5773 5772
5438 5443 5446 5451 5457 5460 5464 5467 5471 5474 5474 5475 5474 5475 5482 5491 5500 5509 5518 5528 5536 5542 5549 5552 5553 5560 5567 5572 5578 5585 5592 5599 5605 5609 5614 5619 5621 5626 5634 5639 5644 5649 5655 5661 5666 5672 5678 5681 5687 5693 5697 5703 5706 5704 5705 5704 5702 5702 5703 5709 5717 5717 5716 5719 5721 5722 5724 5722 5727 5735 5735 5736 5742 5747 5753 5755 5756 5756 5755 5758 5763 5764 5766 5768 5768 5767 5766 5765
5435 5440 5443 5448 5454 5457 5461 5465 5467 5469 5469 5470 5471 5476 5484 5490 5498 5508 5516 5524 5533 5539 5542 5546 5552 5558 5564 5569 5574 5581 5587 5593 5598 5603 5609 5613 5615 5622 5630 5636 5642 5648 5654 5659 5662 5669 5675 5677 5681 5688 5692 5695 5696 5695 5696 5696 5694 5694 5697 5704 5709 5707 5710 5714 5713 5715 5720 5718 5722 5731 5732 5733 5737 5744 5750 5752 5753 5754 5751 5752 5756 5759 5762 5763 5763 5762 5760 5759
5431 5434 5439 5445 5450 5453 5458 5460 5462 5464 5463 5463 5468 5475 5482 5488 5497 5506 5513 5521 5529 5534 5538 5543 5550 5556 5561 5567 5573 5579 5585 5590 5595 5599 5604 5608 5613 5622 5630 5635 5641 5647 5651 5656 5660 5665 5670 5671 5675 5682 5684 5685 5685 5685 5687 5692 5694 5694 5696 5699 5701 5702 5707 5708 5706 5711 5715 5714 5716 5722 5725 5727 5734 5743 5747 5746 5749 5750 5746 5747 5750 5752 5755 5757 5758 5757 5753 5753
5427 5432 5438 5443 5447 5450 5454 5455 5457 5457 5457 5461 5469 5475 5481 5488 5496 5503 5511 5519 5526 5531 5536 5541 5547 5554 5560 5566 5572 5579 5585 5590 5594 5598 5602 5607 5613 5620 5625 5630 5638 5643 5648 5653 5656 5660 5663 5665 5669 5674 5675 5673 5675 5679 5685 5690 5693 5694 5695 5696 5696 5699 5701 5701 5701 5703 5705 5708 5710 5712 5716 5723 5735 5742 5743 5743 5746 5744 5741 5744 5745 5744 5746 5749 5751 5751 5747 5746
5425 5430 5436 5440 5443 5446 5448 5448 5449 5451 5455 5462 5469 5474 5480 5487 5494 5502 5510 5519 5525 5531 5535 5540 5548 5554 5559 5564 5570 5576 5582 5585 5590 5595 5600 5605 5610 5614 5620 5627 5633 5638 5642 5645 5648 5652 5657 5660 5663 5665 5666 5667 5672 5679 5682 5682 5684 5689 5691 5691 5693 5694 5692 5692 5692 5694 5698 5701 5704 5705 5707 5719 5735 5739 5739 5742 5743 5740 5737 5738 5740 5739 5740 5742 5743 5744 5742 5740
5423 5428 5434 5437 5439 5442 5443 5443 5446 5449 5454 5460 5466 5473 5479 5485 5493 5500 5508 5516 5523 5530 5535 5539 5545 5552 5557 5561 5567 5574 5578 5581 5586 5592 5596 5602 5608 5614 5621 5627 5630 5632 5636 5639 5644 5651 5654 5655 5656 5658 5661 5666 5669 5671 5671 5671 5676 5681 5681 5682 5685 5685 5685 5687 5687 5690 5694 5693 5698 5700 5697 5715 5736 5735 5733 5739 5738 5736 5734 5732 5734 5735 5736 5738 5737 5736 5736 5736
5423 5428 5433 5435 5437 5440 5441 5442 5444 5448 5454 5460 5466 5473 5479 5485 5492 5498 5504 5512 5519 5526 5531 5535 5540 5547 5552 5558 5565 5571 5575 5579 5583 5589 5595 5601 5607 5612 5617 5622 5624 5626 5629 5634 5640 5645 5646 5646 5649 5652 5657 5660 5661 5662 5663 5665 5667 5670 5673 5677 5680 5681 5684 5685 5682 5684 5686 5685 5692 5693 5689 5711 5733 5726 5725 5733 5731 5730 5730 5727 5730 5732 5733 5735 5733 5731 5731 5731
5422 5427 5430 5432 5434 5437 5438 5440 5443 5448 5454 5461 5465 5470 5476 5482 5488 5494 5501 5508 5514 5521 5527 5532 5538 5544 5549 5555 5562 5568 5572 5576 5580 5586 5592 5596 5600 5606 5611 5615 5617 5620 5624 5630 5636 5640 5640 5640 5643 5647 5649 5651 5653 5654 5655 5657 5661 5666 5672 5675 5675 5677 5679 5678 5676 5678 5679 5680 5687 5686 5685 5707 5723 5716 5717 5724 5721 5722 5724 5723 5727 5729 5729 5730 5729 5728 5728 5728
5421 5425 5428 5429 5431 5434 5437 5441 5446 5451 5455 5460 5463 5469 5474 5479 5486 5493 5500 5506 5512 5518 5523 5530 5537 5543 5547 5552 5558 5563 5567 5571 5575 5581 5586 5589 5595 5602 5606 5609 5613 5617 5622 5628 5632 5636 5636 5636 5639 5642 5642 5643 5646 5649 5653 5657 5662 5665 5667 5668 5670 5672 5673 5673 5673 5673 5673 5677 5681 5679 5681 5699 5710 5709 5712 5715 5712 5715 5717 5718 5722 5723 5723 5725 5725 5724 5725 5725
5419 5423 5425 5426 5428 5432 5437 5441 5445 5450 5454 5458 5463 5468 5473 5479 5486 5493 5498 5504 5511 5516 5520 5527 5534 5539 5543 5548 5553 5556 5560 5566 5571 5576 5581 5585 5591 5597 5602 5606 5610 5614 5618 5622 5625 5628 5630 5632 5635 5638 5640 5642 5646 5650 5654 5655 5656 5657 5661 5665 5666 5666 5667 5667 5666 5665 5670 5674 5673 5673 5679 5688 5698 5704 5709 5708 5705 5707 5711 5713 5714 5716 5717 5719 5720 5720 5720 5721
5418 5421 5423 5425 5427 5430 5434 5438 5442 5447 5452 5457 5463 5468 5473 5478 5485 5491 5496 5501 5508 5514 5518 5524 5529 5533 5538 5543 5548 5552 5557 5563 5568 5573 5578 5581 5586 5593 5597 5601 5605 5609 5614 5617 5619 5623 5625 5627 5631 5634 5637 5640 5642 5644 5645 5646 5648 5652 5657 5660 5660 5660 5660 5659 5659 5664 5669 5666 5664 5671 5677 5678 5688 5700 5704 5703 5700 5700 5705 5707 5707 5709 5710 5710 5711 5713 5714 5713
5417 5420 5423 5426 5428 5431 5434 5438 5442 5447 5451 5456 5462 5468 5473 5478 5483 5490 5496 5501 5506 5510 5516 5521 5526 5530 5536 5542 5547 5552 5556 5560 5564 5568 5574 5578 5582 5587 5591 5596 5601 5605 5610 5612 5615 5618 5620 5623 5628 5630 5632 5635 5635 5634 5636 5640 5644 5646 5649 5652 5654 5654 5653 5652 5655 5661 5663 5658 5661 5670 5671 5670 5681 5693 5696 5697 5697 5695 5698 5699 5699 5702 5703 5700 5701 5704 5705 5704
5417 5420 5423 5425 5429 5433 5438 5442 5445 5448 5451 5455 5460 5464 5470 5477 5483 5489 5496 5500 5504 5508 5514 5519 5524 5529 5535 5540 5545 5550 5554 5558 5562 5567 5572 5575 5579 5583 5587 5592 5598 5602 5605 5607 5610 5613 5615 5618 5622 5624 5626 5629 5627 5626 5631 5637 5638 5639 5642 5646 5647 5648 5648 5648 5651 5656 5658 5656 5661 5666 5665 5665 5674 5682 5687 5693 5693 5689 5689 5691 5694 5695 5693 5691 5693 5694 5695 5695
5418 5420 5423 5426 5429 5433 5437 5441 5444 5448 5452 5456 5459 5464 5469 5476 5483 5489 5494 5499 5504 5508 5513 5518 5524 5530 5536 5540 5544 5549 5555 5559 5562 5566 5571 5574 5577 5581 5584 5588 5593 5597 5599 5601 5604 5608 5612 5614 5616 5619 5620 5622 5622 5624 5627 5630 5631 5632 5635 5638 5640 5641 5643 5645 5649 5654 5655 5655 5659 5661 5658 5660 5667 5674 5680 5686 5685 5683 5684 5686 5690 5689 5685 5684 5684 5684 5684 5686
5418 5421 5424 5427 5430 5432 5435 5438 5443 5448 5452 5455 5459 5464 5469 5476 5483 5489 5493 5497 5503 5509 5515 5521 5526 5530 5534 5539 5543 5549 5553 5556 5559 5563 5567 5570 5574 5578 5581 5584 5588 5590 5593 5597 5600 5604 5607 5607 5609 5612 5613 5615 5620 5621 5621 5624 5625 5624 5625 5629 5633 5636 5640 5645 5649 5651 5651 5652 5653 5652 5650 5657 5667 5669 5668 5672 5677 5680 5680 5680 5680 5680 5679 5677 5675 5675 5677 5676
5418 5420 5423 5426 5430 5433 5436 5439 5443 5447 5451 5455 5460 5465 5470 5476 5483 5487 5492 5496 5502 5507 5513 5520 5524 5528 5532 5536 5541 5546 5550 5552 5555 5558 5560 5563 5566 5569 5573 5577 5580 5583 5587 5591 5593 5598 5601 5601 5603 5606 5608 5611 5616 5615 5616 5618 5613 5611 5618 5628 5632 5636 5640 5642 5643 5645 5646 5646 5645 5645 5648 5656 5661 5658 5657 5664 5671 5674 5674 5672 5669 5667 5666 5665 5665 5668 5670 5667